Location: Ceske Budejovice
(48.9830°N, 14.4670°E)
Time: 00:25:14
(UTC+01:00)

EO-79 - Visible Passes

Search period start: 16 February 2026 00:00
Search period end: 26 February 2026 00:00
Orbit: 513 x 523 km, 98.1° (Epoch: 14 February)

Date Brightness Start Highest point End Pass type
(mag) Time Alt. Az. Time Alt. Az. Time Alt. Az.
16 Feb ? 06:13:09 10° NNE 06:16:59 86° WNW 06:20:47 10° SSW visible
17 Feb ? 05:59:00 10° NNE 06:02:48 65° ESE 06:06:35 10° S visible
17 Feb ? 18:19:34 10° WSW 18:21:13 12° W 18:22:52 10° WNW visible
18 Feb ? 05:44:54 10° NNE 05:48:35 44° E 05:52:13 10° S visible
18 Feb ? 18:04:16 10° SW 18:06:52 17° W 18:09:28 10° NW visible
19 Feb ? 05:30:53 10° NNE 05:34:18 31° E 05:37:41 10° SSE visible
20 Feb ? 05:16:58 10° NE 05:19:59 22° E 05:22:58 10° SSE visible
21 Feb ? 05:03:16 10° NE 05:05:36 16° E 05:07:57 10° SE visible
22 Feb ? 04:50:08 10° ENE 04:51:12 11° E 04:52:16 10° ESE visible
22 Feb ? 06:21:54 10° N 06:25:43 72° WNW 06:29:28 10° SSW visible
23 Feb ? 06:07:37 10° NNE 06:11:27 78° ESE 06:15:13 10° S visible
23 Feb ? 18:29:06 10° W 18:29:52 10° W 18:30:38 10° WNW visible
24 Feb ? 05:53:24 10° NNE 05:57:08 52° E 06:00:50 10° S visible
24 Feb ? 18:13:10 10° SW 18:15:25 15° W 18:17:40 10° NW visible
25 Feb ? 05:39:14 10° NNE 05:42:47 36° E 05:46:17 10° SSE visible
